Location: Seale
(32.2974°N, 85.1688°W)
Time: 06:20:27
(UTC+00:00)

Hubble Space Telescope - Pass Details

Date: 25 January 2021
Orbit: 536 x 539 km, 28.5° (Epoch: 02 March)

Event Time Altitude Azimuth Distance (km) Brightness Sun altitude
Rises 01:20:03 0° 267° (W) 2,675 5.6 -28.0°
Reaches altitude 10° 01:22:35 10° 253° (WSW) 1,783 4.3 -28.6°
Enters shadow 01:25:05 23° 219° (SW) 1,171 2.8 -29.1°
